Tracking 17558 objects as of 14-February-2016
HD Live streaming from Space Station
objects crossing your sky now

GLOBALSTAR M006

Track GLOBALSTAR M006 now!
10-day predictions
GLOBALSTAR M006 is classified as:


NORAD ID: 25307
Int'l Code: 1998-023B
Perigee: 1,419.8 km
Apogee: 1,421.7 km
Inclination: 52.0 °
Period: 114.1 minutes
Semi major axis: 7791 km
RCS: 2.7065 m2 (large)
Launch date: April 24, 1998
Source: Globalstar (GLOB)
Launch site: AIR FORCE EASTERN TEST RANGE (AFETR)
Your satellite tracking list
Your tracking list is empty





NASA's NSSDC Master Catalog

Two Line Element Set (TLE):
1 25307U 98023B   16042.61693703 -.00000085  00000-0  10689-3 0  9998
2 25307  51.9977  90.2549 0001220 135.0561   1.4249 12.6226634821151
Source of the keplerian elements: AFSPC

N2YO: 341